EW3608 Weather Reports


time (UTC)temp
C
wind
direction
speed
KPH
gust
KPH
rain 1hr
cm
rain 24hr
cm
rain mn
cm
humidity
%
barometer
mb
20260902123004 14 220 0.0 3.2 0.00 0.00 0.00 63 1018.7
20260902122504 14 213 0.0 3.2 0.00 0.00 0.00 62 1018.7
20260902122004 15 187 0.0 3.2 0.00 0.00 0.00 61 1018.7
20260902121511 15 190 0.0 3.2 0.00 0.00 0.00 58 1018.7
20260902121009 15 360 0.0 3.2 0.00 0.00 0.00 57 1018.6
20260902120513 15 360 0.0 3.2 0.00 0.00 0.00 58 1018.7
20260902120029 15 360 0.0 3.2 0.00 0.00 0.00 56 1018.6
20260902115516 16 352 0.0 3.2 0.00 0.00 0.00 54 1018.4
20260902115003 16 352 0.0 3.2 0.00 0.00 0.00 56 1018.4
20260902114507 16 352 0.0 3.2 0.00 0.00 0.00 54 1018.4
20260902114010 15 352 0.0 3.2 0.00 0.00 0.00 54 1018.4
20260902113506 15 336 0.0 3.2 0.00 0.00 0.00 54 1018.4
20260902113018 15 336 0.0 3.2 0.00 0.00 0.00 56 1018.3
20260902112510 15 240 0.0 3.2 0.00 0.00 0.00 56 1018.4
20260902112015 15 218 0.0 3.2 0.00 0.00 0.00 59 1018.4
20260902111526 15 244 0.0 3.2 0.00 0.00 0.00 60 1018.4
20260902111002 15 250 0.0 3.2 0.00 0.00 0.00 60 1018.4
20260902110506 15 210 0.0 3.2 0.00 0.00 0.00 58 1018.4
20260902110011 15 194 1.6 3.2 0.00 0.00 0.00 58 1018.5
20260902105507 15 189 1.6 3.2 0.00 0.00 0.00 57 1018.5
20260902105015 16 161 0.0 3.2 0.00 0.00 0.00 56 1018.5
20260902104532 16 71 0.0 3.2 0.00 0.00 0.00 56 1018.5
20260902104015 16 100 0.0 3.2 0.00 0.00 0.00 54 1018.5
20260902103514 16 90 0.0 3.2 0.00 0.00 0.00 54 1018.5
20260902103004 16 175 0.0 4.8 0.00 0.00 0.00 53 1018.5
20260902102506 16 232 1.6 4.8 0.00 0.00 0.00 53 1018.5
20260902102006 16 223 1.6 4.8 0.00 0.00 0.00 53 1018.4
20260902101515 16 202 1.6 4.8 0.00 0.00 0.00 56 1018.4
20260902101011 15 202 1.6 4.8 0.00 0.00 0.00 58 1018.4
20260902100513 16 224 0.0 4.8 0.00 0.00 0.00 59 1018.3
20260902100027 16 167 1.6 4.8 0.00 0.00 0.00 57 1018.3
20260902095518 16 200 0.0 3.2 0.00 0.00 0.00 57 1018.4
20260902095003 16 200 0.0 3.2 0.00 0.00 0.00 56 1018.3
20260902094506 17 200 0.0 3.2 0.00 0.00 0.00 53 1018.4
20260902094007 17 200 0.0 3.2 0.00 0.00 0.00 52 1018.3
20260902093510 17 200 0.0 3.2 0.00 0.00 0.00 51 1018.3
20260902090014 17 219 0.0 6.4 0.00 0.00 0.00 50 1018.4
20260902085513 17 205 1.6 3.2 0.00 0.00 0.00 52 1018.4
20260902085011 17 62 0.0 3.2 0.00 0.00 0.00 55 1018.4
20260902084530 17 46 1.6 3.2 0.00 0.00 0.00 55 1018.4
20260902084017 17 84 0.0 3.2 0.00 0.00 0.00 54 1018.4
20260902083521 17 167 0.0 3.2 0.00 0.00 0.00 54 1018.3
20260902083011 17 252 0.0 3.2 0.00 0.00 0.00 53 1018.3
20260902082507 18 252 0.0 3.2 0.00 0.00 0.00 51 1018.3
20260902082010 18 253 0.0 3.2 0.00 0.00 0.00 50 1018.3
20260902081521 18 257 0.0 3.2 0.00 0.00 0.00 48 1018.3
20260902081010 19 257 0.0 3.2 0.00 0.00 0.00 46 1018.3
20260902080514 20 257 0.0 1.6 0.00 0.00 0.00 44 1018.3
20260902080008 20 257 0.0 3.2 0.00 0.00 0.00 43 1018.2
20260902075503 20 257 0.0 3.2 0.00 0.00 0.00 41 1018.3
20260902075004 21 317 0.0 3.2 0.00 0.00 0.00 40 1018.3
20260902074511 21 342 0.0 9.7 0.00 0.00 0.00 39 1018.4
20260902074008 21 276 1.6 9.7 0.00 0.00 0.00 39 1018.3
20260902073511 21 236 0.0 4.8 0.00 0.00 0.00 39 1018.3
20260902073026 21 269 1.6 8.0 0.00 0.00 0.00 39 1018.2
20260902072515 21 171 1.6 8.0 0.00 0.00 0.00 39 1018.2
20260902072007 21 250 1.6 6.4 0.00 0.00 0.00 39 1018.2
20260902071504 21 262 3.2 9.7 0.00 0.00 0.00 39 1018.3
20260902071004 21 255 1.6 9.7 0.00 0.00 0.00 39 1018.3
20260902070505 21 274 1.6 8.0 0.00 0.00 0.00 39 1018.3
20260902070018 21 254 1.6 6.4 0.00 0.00 0.00 39 1018.3
20260902065511 21 262 1.6 4.8 0.00 0.00 0.00 39 1018.3
20260902065014 21 263 1.6 4.8 0.00 0.00 0.00 39 1018.3
20260902064528 21 246 1.6 4.8 0.00 0.00 0.00 39 1018.4
20260902064002 21 304 0.0 6.4 0.00 0.00 0.00 40 1018.3
20260902063508 21 265 1.6 6.4 0.00 0.00 0.00 40 1018.3
20260902063008 21 292 0.0 6.4 0.00 0.00 0.00 40 1018.3
20260902062508 21 265 1.6 4.8 0.00 0.00 0.00 40 1018.3
20260902062010 21 277 0.0 4.8 0.00 0.00 0.00 40 1018.4
20260902061525 20 277 0.0 6.4 0.00 0.00 0.00 40 1018.4
20260902061013 20 155 1.6 6.4 0.00 0.00 0.00 40 1018.5
20260902060513 20 255 1.6 4.8 0.00 0.00 0.00 40 1018.6
20260902060006 20 202 0.0 6.4 0.00 0.00 0.00 40 1018.6
20260902055506 20 317 1.6 6.4 0.00 0.00 0.00 40 1018.6
20260902055008 20 10 0.0 3.2 0.00 0.00 0.00 40 1018.7
20260902054516 20 332 0.0 3.2 0.00 0.00 0.00 40 1018.6
20260902054011 20 336 1.6 3.2 0.00 0.00 0.00 40 1018.7
20260902053513 20 247 0.0 3.2 0.00 0.00 0.00 40 1018.6
20260902053029 20 245 0.0 3.2 0.00 0.00 0.00 40 1018.5
20260902052518 20 250 1.6 3.2 0.00 0.00 0.00 41 1018.6
20260902052003 20 327 1.6 4.8 0.00 0.00 0.00 40 1018.7
20260902051508 20 13 0.0 4.8 0.00 0.00 0.00 40 1018.6
20260902051010 20 280 3.2 4.8 0.00 0.00 0.00 41 1018.5
20260902050508 20 250 0.0 3.2 0.00 0.00 0.00 41 1018.5
20260902050030 20 360 0.0 3.2 0.00 0.00 0.00 41 1018.7
20260902045515 20 305 0.0 3.2 0.00 0.00 0.00 41 1018.8
20260902045015 20 204 0.0 3.2 0.00 0.00 0.00 42 1018.8
20260902044531 20 287 0.0 3.2 0.00 0.00 0.00 43 1018.9
20260902044004 20 268 0.0 3.2 0.00 0.00 0.00 43 1018.9
20260902043503 20 261 0.0 3.2 0.00 0.00 0.00 45 1018.9
20260902043009 20 352 0.0 3.2 0.00 0.00 0.00 49 1018.9
20260902042507 20 352 0.0 3.2 0.00 0.00 0.00 47 1019.0
20260902042011 20 340 0.0 3.2 0.00 0.00 0.00 47 1019.0
20260902041540 20 305 0.0 3.2 0.00 0.00 0.00 48 1018.9
20260902041014 20 229 0.0 3.2 0.00 0.00 0.00 49 1018.9
20260902040514 20 229 0.0 3.2 0.00 0.00 0.00 52 1019.0
20260902040005 20 162 0.0 3.2 0.00 0.00 0.00 52 1019.0
20260902035504 21 155 0.0 3.2 0.00 0.00 0.00 52 1019.0
20260902035008 21 155 0.0 3.2 0.00 0.00 0.00 51 1019.1
20260902034513 21 155 0.0 3.2 0.00 0.00 0.00 51 1019.1
20260902034016 21 155 0.0 3.2 0.00 0.00 0.00 50 1019.1
20260902033515 21 210 0.0 3.2 0.00 0.00 0.00 48 1019.1
20260902033027 22 222 0.0 3.2 0.00 0.00 0.00 47 1018.9
20260902032517 22 221 0.0 3.2 0.00 0.00 0.00 46 1018.7
20260902032005 22 205 0.0 3.2 0.00 0.00 0.00 45 1018.7
20260902031511 22 205 0.0 3.2 0.00 0.00 0.00 45 1018.6
20260902031008 22 205 0.0 3.2 0.00 0.00 0.00 44 1018.6
20260902030513 23 205 0.0 3.2 0.00 0.00 0.00 42 1018.5
20260902030022 23 229 0.0 3.2 0.00 0.00 0.00 41 1018.7
20260902025516 23 229 0.0 3.2 0.00 0.00 0.00 41 1018.5
20260902025019 24 46 0.0 3.2 0.00 0.00 0.00 39 1018.5
20260902024529 24 46 0.0 3.2 0.00 0.03 0.00 39 1018.4
20260902024003 24 46 1.6 3.2 0.00 0.03 0.00 37 1018.2
20260902023505 25 19 0.0 4.8 0.00 0.03 0.00 37 1018.0
20260902023017 25 337 1.6 8.0 0.00 0.13 0.00 37 1017.8
20260902022512 25 21 3.2 9.7 0.00 0.18 0.00 37 1017.8
20260902022016 25 22 1.6 16.1 0.00 0.18 0.00 37 1017.8
20260902021525 24 350 4.8 16.1 0.00 0.18 0.00 37 1017.8
20260902021014 24 39 1.6 4.8 0.00 0.18 0.00 38 1017.7
20260902020517 24 15 1.6 3.2 0.00 0.18 0.00 38 1017.6
20260902020008 25 65 0.0 3.2 0.00 0.18 0.00 36 1017.5
20260902015508 25 187 0.0 8.0 0.00 0.18 0.00 35 1017.5
20260902015007 25 134 0.0 8.0 0.00 0.18 0.00 35 1017.6
20260902014523 25 202 0.0 3.2 0.00 0.18 0.00 37 1017.6
20260902014011 25 232 0.0 3.2 0.00 0.18 0.00 38 1017.5
20260902013515 25 165 0.0 3.2 0.00 0.18 0.00 37 1017.4
20260902013029 25 165 0.0 3.2 0.00 0.18 0.00 37 1017.3
20260902012515 26 196 0.0 3.2 0.00 0.18 0.00 38 1017.4
20260902012006 26 168 0.0 3.2 0.00 0.18 0.00 37 1017.4
20260902011518 26 93 0.0 3.2 0.00 0.18 0.00 35 1017.2
20260902011008 26 93 0.0 3.2 0.00 0.18 0.00 35 1017.1
20260902010514 27 93 0.0 4.8 0.00 0.18 0.00 35 1017.0
20260902010035 27 86 0.0 4.8 0.00 0.18 0.00 33 1016.9
20260902005518 27 69 0.0 4.8 0.00 0.18 0.00 34 1016.8
20260902005017 27 40 0.0 4.8 0.00 0.18 0.00 33 1016.8
20260902004536 27 94 1.6 4.8 0.00 0.18 0.00 32 1016.9
20260902004005 27 74 0.0 3.2 0.00 0.18 0.00 34 1016.9
20260902003507 27 92 0.0 3.2 0.00 0.18 0.00 34 1017.0
20260902003104 27 50 0.0 4.8 0.00 0.18 0.00 34 1017.0
20260902002511 27 49 1.6 4.8 0.00 0.18 0.00 32 1017.0
20260902002015 27 43 1.6 6.4 0.00 0.18 0.00 32 1017.0
20260902001534 27 86 1.6 11.3 0.00 0.18 0.00 33 1017.0
20260902001016 27 73 1.6 11.3 0.00 0.18 0.00 32 1017.0
20260902000503 28 13 3.2 9.7 0.00 0.18 0.00 30 1017.0
20260902000016 28 75 4.8 8.0 0.00 0.18 0.00 28 1016.9
20260901235508 28 13 3.2 6.4 0.00 0.18 0.00 29 1016.9
20260901235011 28 59 3.2 6.4 0.00 0.18 0.00 28 1016.9
20260901234524 28 32 1.6 6.4 0.00 0.18 0.00 29 1016.9
20260901234016 28 352 0.0 8.0 0.00 0.18 0.00 29 1016.9
20260901233520 28 34 3.2 8.0 0.00 0.18 0.00 29 1016.9
20260901233036 28 56 3.2 9.7 0.00 0.18 0.00 28 1016.9
20260901232509 29 78 4.8 9.7 0.00 0.18 0.00 28 1016.8
20260901232007 30 9 1.6 9.7 0.00 0.18 0.00 27 1016.8
20260901231516 30 300 4.8 9.7 0.00 0.18 0.00 25 1016.8
20260901231012 30 46 3.2 14.5 0.00 0.18 0.00 25 1016.9
20260901230514 30 332 4.8 24.1 0.00 0.18 0.00 24 1016.8
20260901230029 31 44 11.3 24.1 0.00 0.18 0.00 24 1016.5
20260901225517 31 293 4.8 19.3 0.00 0.18 0.00 22 1016.7
20260901225017 31 310 3.2 19.3 0.00 0.18 0.00 22 1016.7
20260901224510 31 240 4.8 16.1 0.00 0.18 0.00 21 1016.6
20260901224008 32 282 3.2 12.9 0.00 0.18 0.00 21 1016.6
20260901223512 32 174 0.0 12.9 0.00 0.18 0.00 21 1016.6
20260901223023 32 338 4.8 19.3 0.00 0.18 0.00 20 1016.7
20260901222516 32 279 4.8 19.3 0.00 0.18 0.00 20 1016.8
20260901222013 31 212 4.8 17.7 0.00 0.18 0.00 21 1016.8
20260901221539 31 218 3.2 22.5 0.00 0.18 0.00 21 1017.0
20260901221018 31 24 3.2 22.5 0.00 0.18 0.00 21 1017.0
20260901220508 31 254 1.6 24.1 0.00 0.18 0.00 21 1017.2
20260901220023 31 45 3.2 24.1 0.00 0.18 0.00 22 1017.3
20260901215512 31 248 3.2 11.3 0.00 0.18 0.00 23 1017.4
20260901215016 30 286 1.6 9.7 0.00 0.18 0.00 23 1017.4
20260901214526 30 218 1.6 6.4 0.00 0.18 0.00 23 1017.5
20260901214015 30 299 1.6 11.3 0.00 0.18 0.00 23 1017.6
20260901213504 29 253 3.2 12.9 0.00 0.18 0.00 23 1017.6
20260901213008 30 240 3.2 12.9 0.00 0.18 0.00 24 1017.7
20260901212507 30 343 3.2 9.7 0.00 0.18 0.00 23 1017.8
20260901212009 30 331 1.6 12.9 0.00 0.18 0.00 23 1017.9
20260901211521 30 238 4.8 12.9 0.00 0.18 0.00 24 1017.9
20260901211013 30 5 3.2 6.4 0.00 0.18 0.00 28 1017.9
20260901210515 30 307 1.6 6.4 0.00 0.18 0.00 28 1017.9
20260901210004 29 296 0.0 6.4 0.00 0.18 0.00 30 1018.0
20260901205504 29 38 0.0 6.4 0.00 0.18 0.00 30 1018.0
20260901205008 29 23 1.6 6.4 0.00 0.18 0.00 30 1018.1
20260901204514 29 73 0.0 6.4 0.00 0.18 0.00 31 1018.0
20260901204011 28 199 0.0 9.7 0.00 0.18 0.00 30 1018.0
20260901203514 28 131 1.6 9.7 0.00 0.18 0.00 29 1018.1
20260901203029 28 112 1.6 6.4 0.00 0.18 0.00 31 1018.1
20260901202515 28 105 0.0 11.3 0.00 0.18 0.00 30 1018.2
20260901202007 28 198 3.2 11.3 0.00 0.18 0.00 30 1018.2
20260901201508 29 149 3.2 11.3 0.00 0.18 0.00 30 1018.1
20260901201008 30 229 3.2 11.3 0.00 0.18 0.00 29 1018.2
20260901200508 30 114 3.2 6.4 0.00 0.18 0.00 30 1018.2
20260901200020 30 184 1.6 6.4 0.00 0.18 0.00 28 1018.2
20260901195511 30 244 1.6 9.7 0.00 0.18 0.00 28 1018.2
20260901195013 30 161 1.6 9.7 0.00 0.18 0.00 28 1018.2
20260901194533 30 210 1.6 11.3 0.00 0.18 0.00 27 1018.2
20260901194003 31 96 3.2 11.3 0.00 0.18 0.00 27 1018.2
20260901193506 31 268 0.0 9.7 0.00 0.18 0.00 28 1018.1
20260901193010 30 86 1.6 9.7 0.00 0.18 0.00 29 1018.1
20260901192511 30 111 3.2 6.4 0.00 0.18 0.00 28 1018.2
20260901192010 30 145 3.2 16.1 0.00 0.18 0.00 29 1018.3
20260901191535 30 251 3.2 19.3 0.00 0.18 0.00 29 1018.3
20260901191016 30 227 6.4 19.3 0.00 0.18 0.00 25 1018.3
20260901190517 31 18 4.8 14.5 0.00 0.18 0.00 25 1018.4
20260901190012 30 194 4.8 14.5 0.00 0.18 0.00 27 1018.6
20260901185509 30 248 3.2 12.9 0.00 0.18 0.00 25 1018.5
20260901185012 30 306 3.2 14.5 0.00 0.18 0.00 25 1018.8
20260901184516 30 234 6.4 14.5 0.00 0.18 0.00 25 1018.9
20260901184012 29 92 1.6 9.7 0.00 0.18 0.00 25 1019.0
20260901183514 30 360 1.6 8.0 0.00 0.18 0.00 26 1019.2
20260901183030 30 319 3.2 8.0 0.00 0.18 0.00 30 1019.3
20260901182517 29 91 1.6 16.1 0.00 0.18 0.00 27 1019.2
20260901182006 29 260 6.4 16.1 0.00 0.18 0.00 27 1019.2
20260901181510 29 153 6.4 14.5 0.00 0.18 0.00 29 1019.2
20260901181008 29 173 4.8 16.1 0.00 0.18 0.00 26 1019.3
20260901180512 29 175 4.8 19.3 0.00 0.18 0.00 27 1019.2
20260901180029 28 254 4.8 19.3 0.00 0.18 0.00 28 1019.2
20260901175515 28 202 3.2 16.1 0.00 0.18 0.00 28 1019.3
20260901175013 28 217 4.8 24.1 0.00 0.18 0.00 27 1019.5
20260901174539 28 292 9.7 32.2 0.00 0.18 0.00 28 1019.6
20260901174008 28 360 6.4 32.2 0.00 0.18 0.00 28 1019.6
20260901173508 28 233 3.2 17.7 0.00 0.18 0.00 29 1019.7
20260901173015 28 340 3.2 19.3 0.00 0.18 0.00 29 1019.9
20260901172514 27 24 6.4 19.3 0.00 0.18 0.00 30 1019.9
20260901172014 27 226 3.2 14.5 0.00 0.18 0.00 30 1020.0
20260901171528 27 112 3.2 17.7 0.00 0.18 0.00 31 1020.0
20260901171014 27 291 3.2 20.9 0.00 0.18 0.00 32 1020.0
20260901170516 27 236 9.7 30.6 0.00 0.18 0.00 32 1020.1
20260901170009 27 182 8.0 32.2 0.00 0.18 0.00 33 1020.1
20260901165510 26 211 6.4 32.2 0.00 0.18 0.00 33 1020.1
20260901165010 26 115 6.4 24.1 0.00 0.18 0.00 34 1020.2
20260901164523 26 84 4.8 16.1 0.00 0.18 0.00 34 1020.0
20260901164016 26 191 1.6 6.4 0.00 0.18 0.00 40 1020.0
20260901163515 25 334 0.0 12.9 0.00 0.18 0.00 41 1020.0
20260901163059 25 115 0.0 12.9 0.00 0.18 0.00 42 1020.0
20260901162519 25 20 4.8 11.3 0.00 0.18 0.00 44 1019.9
20260901162007 24 115 1.6 6.4 0.00 0.18 0.00 44 1020.0
20260901161514 23 336 3.2 6.4 0.00 0.18 0.00 45 1020.1
20260901161012 22 338 1.6 3.2 0.00 0.18 0.00 49 1020.1
20260901160515 22 113 0.0 3.2 0.00 0.18 0.00 54 1020.1
20260901160026 21 137 1.6 4.8 0.00 0.18 0.00 67 1020.1
20260901155517 21 51 3.2 4.8 0.00 0.18 0.00 67 1020.2
20260901155004 21 352 1.6 3.2 0.00 0.18 0.00 71 1020.3
20260901154509 20 63 0.0 4.8 0.00 0.18 0.00 71 1020.3
20260901154007 20 9 1.6 6.4 0.00 0.18 0.00 70 1020.4
20260901153510 20 9 1.6 6.4 0.00 0.18 0.00 72 1020.4
20260901153035 19 26 1.6 4.8 0.00 0.18 0.00 74 1020.5
20260901152511 19 256 0.0 3.2 0.00 0.18 0.00 76 1020.5
20260901152015 18 47 1.6 3.2 0.00 0.18 0.00 74 1020.5
20260901151508 18 18 1.6 3.2 0.00 0.18 0.00 76 1020.6
20260901151005 18 20 0.0 0.0 0.00 0.18 0.00 78 1020.6
20260901150505 18 20 0.0 3.2 0.00 0.18 0.00 77 1020.5
20260901150012 18 20 0.0 3.2 0.00 0.18 0.00 80 1020.4
20260901145512 17 345 1.6 3.2 0.00 0.18 0.00 78 1020.4
20260901145014 17 98 1.6 3.2 0.00 0.18 0.00 82 1020.3
20260901144525 17 171 0.0 3.2 0.00 0.18 0.00 82 1020.4
20260901144019 16 175 0.0 3.2 0.00 0.18 0.00 82 1020.3
20260901143504 16 175 0.0 3.2 0.00 0.18 0.00 85 1020.4
20260901143005 16 175 0.0 3.2 0.00 0.18 0.00 85 1020.5
20260901142506 16 192 1.6 3.2 0.00 0.18 0.00 86 1020.5
20260901142007 16 202 0.0 3.2 0.00 0.18 0.00 88 1020.5
20260901141518 15 161 0.0 3.2 0.00 0.18 0.00 88 1020.5
20260901141011 15 209 0.0 3.2 0.00 0.18 0.00 89 1020.5
20260901140512 15 209 0.0 3.2 0.00 0.18 0.00 89 1020.5
20260901140030 15 209 0.0 3.2 0.00 0.18 0.00 89 1020.4
20260901135517 15 209 0.0 3.2 0.00 0.18 0.00 89 1020.5
20260901135005 15 209 0.0 3.2 0.00 0.18 0.00 88 1020.4
20260901134514 15 209 0.0 3.2 0.00 0.18 0.00 89 1020.4
20260901134009 15 210 0.0 3.2 0.00 0.18 0.00 88 1020.3
20260901133513 15 211 0.0 3.2 0.00 0.18 0.00 89 1020.3
20260901133023 14 210 0.0 3.2 0.00 0.18 0.00 89 1020.3
20260901132516 14 180 0.0 3.2 0.00 0.18 0.00 89 1020.1
20260901132019 14 184 0.0 3.2 0.00 0.18 0.00 89 1020.1
20260901131530 14 188 0.0 1.6 0.00 0.18 0.00 88 1020.0
20260901131006 14 188 0.0 1.6 0.00 0.18 0.00 88 1019.8
20260901130508 14 188 0.0 3.2 0.00 0.18 0.00 88 1019.7
20260901130017 14 188 0.0 3.2 0.00 0.18 0.00 88 1019.7
20260901125516 14 188 0.0 4.8 0.00 0.18 0.00 88 1019.8
20260901125014 14 189 0.0 4.8 0.00 0.18 0.00 89 1019.6
20260901124503 14 182 0.0 3.2 0.00 0.18 0.00 89 1019.5
20260901124004 14 182 0.0 3.2 0.00 0.18 0.00 89 1019.5
20260901123503 14 182 0.0 3.2 0.00 0.18 0.00 88 1019.4